| time (UTC) | temp F | wind direction | speed MPH | gust MPH | rain 1hr in | rain 24hr in | rain mn in | humidity % | barometer mb |
| 20260505021830 | 70 | 186 | 1.0 | 6.0 | 0.00 | 0.00 | 0.00 | 47 | 1007.6 |
| 20260505020829 | 70 | 269 | 3.0 | 9.0 | 0.00 | 0.00 | 0.00 | 46 | 1007.4 |
| 20260505020329 | 71 | 215 | 2.0 | 9.0 | 0.00 | 0.00 | 0.00 | 46 | 1007.5 |
| 20260505015829 | 71 | 198 | 3.0 | 10.0 | 0.00 | 0.00 | 0.00 | 45 | 1007.6 |
| 20260505015324 | 71 | 187 | 3.0 | 10.0 | 0.00 | 0.00 | 0.00 | 45 | 1007.5 |
| 20260505014825 | 71 | 219 | 2.0 | 9.0 | 0.00 | 0.00 | 0.00 | 44 | 1007.4 |
| 20260505014324 | 71 | 210 | 3.0 | 9.0 | 0.00 | 0.00 | 0.00 | 44 | 1007.4 |
| 20260505013824 | 71 | 201 | 3.0 | 9.0 | 0.00 | 0.00 | 0.00 | 44 | 1007.2 |
| 20260505012823 | 71 | 191 | 3.0 | 8.0 | 0.00 | 0.00 | 0.00 | 44 | 1007.2 |
| 20260505012325 | 71 | 268 | 2.0 | 5.0 | 0.00 | 0.00 | 0.00 | 44 | 1007.1 |
| 20260505011822 | 71 | 205 | 2.0 | 6.0 | 0.00 | 0.00 | 0.00 | 44 | 1007.0 |
| 20260505011322 | 71 | 212 | 1.0 | 7.0 | 0.00 | 0.00 | 0.00 | 44 | 1007.1 |
| 20260505010323 | 72 | 162 | 1.0 | 6.0 | 0.00 | 0.00 | 0.00 | 44 | 1007.0 |
| 20260505005823 | 72 | 203 | 0.0 | 3.0 | 0.00 | 0.00 | 0.00 | 44 | 1007.0 |
| 20260505005323 | 72 | 208 | 0.0 | 2.0 | 0.00 | 0.00 | 0.00 | 44 | 1006.9 |
| 20260505004823 | 72 | 204 | 1.0 | 5.0 | 0.00 | 0.00 | 0.00 | 44 | 1006.9 |
| 20260505004317 | 73 | 192 | 2.0 | 9.0 | 0.00 | 0.00 | 0.00 | 43 | 1006.8 |
| 20260505003817 | 73 | 225 | 3.0 | 9.0 | 0.00 | 0.00 | 0.00 | 43 | 1006.8 |
| 20260505003316 | 73 | 156 | 3.0 | 9.0 | 0.00 | 0.00 | 0.00 | 43 | 1006.8 |
| 20260505001317 | 74 | 226 | 3.0 | 8.0 | 0.00 | 0.00 | 0.00 | 41 | 1006.7 |
| 20260505000810 | 74 | 172 | 4.0 | 10.0 | 0.00 | 0.00 | 0.00 | 41 | 1006.7 |
| 20260504235809 | 74 | 216 | 3.0 | 11.0 | 0.00 | 0.00 | 0.00 | 41 | 1006.7 |
| 20260504234811 | 74 | 183 | 3.0 | 8.0 | 0.00 | 0.00 | 0.00 | 40 | 1006.6 |
| 20260504234312 | 74 | 197 | 3.0 | 8.0 | 0.00 | 0.00 | 0.00 | 40 | 1006.6 |
| 20260504233812 | 75 | 188 | 4.0 | 9.0 | 0.00 | 0.00 | 0.00 | 39 | 1006.6 |
| 20260504233306 | 75 | 212 | 5.0 | 10.0 | 0.00 | 0.00 | 0.00 | 39 | 1006.5 |
| 20260504232304 | 76 | 203 | 3.0 | 13.0 | 0.00 | 0.00 | 0.00 | 37 | 1006.5 |
| 20260504231803 | 76 | 158 | 3.0 | 9.0 | 0.00 | 0.00 | 0.00 | 36 | 1006.4 |
| 20260504231302 | 76 | 236 | 4.0 | 12.0 | 0.00 | 0.00 | 0.00 | 36 | 1006.4 |
| 20260504230802 | 76 | 139 | 6.0 | 14.0 | 0.00 | 0.00 | 0.00 | 36 | 1006.4 |
| 20260504230255 | 76 | 195 | 5.0 | 14.0 | 0.00 | 0.00 | 0.00 | 35 | 1006.4 |
| 20260504225756 | 76 | 206 | 5.0 | 14.0 | 0.00 | 0.00 | 0.00 | 35 | 1006.4 |
| 20260504224755 | 77 | 224 | 5.0 | 13.0 | 0.00 | 0.00 | 0.00 | 35 | 1006.5 |
| 20260504224254 | 77 | 211 | 5.0 | 13.0 | 0.00 | 0.00 | 0.00 | 35 | 1006.6 |
| 20260504223255 | 77 | 217 | 6.0 | 15.0 | 0.00 | 0.00 | 0.00 | 35 | 1006.5 |
| 20260504222749 | 77 | 217 | 7.0 | 15.0 | 0.00 | 0.00 | 0.00 | 35 | 1006.5 |
| 20260504222250 | 77 | 233 | 8.0 | 15.0 | 0.00 | 0.00 | 0.00 | 34 | 1006.4 |
| 20260504221749 | 77 | 210 | 8.0 | 15.0 | 0.00 | 0.00 | 0.00 | 34 | 1006.5 |
| 20260504221248 | 77 | 210 | 6.0 | 15.0 | 0.00 | 0.00 | 0.00 | 34 | 1006.5 |
| 20260504220749 | 77 | 191 | 7.0 | 15.0 | 0.00 | 0.00 | 0.00 | 33 | 1006.6 |
| 20260504215749 | 78 | 186 | 6.0 | 14.0 | 0.00 | 0.00 | 0.00 | 33 | 1006.6 |
| 20260504214743 | 78 | 226 | 7.0 | 18.0 | 0.00 | 0.00 | 0.00 | 33 | 1006.5 |
| 20260504214243 | 78 | 204 | 6.0 | 18.0 | 0.00 | 0.00 | 0.00 | 32 | 1006.5 |
| 20260504213741 | 78 | 249 | 6.0 | 18.0 | 0.00 | 0.00 | 0.00 | 32 | 1006.4 |
| 20260504212743 | 78 | 204 | 5.0 | 15.0 | 0.00 | 0.00 | 0.00 | 31 | 1006.5 |
| 20260504212243 | 78 | 167 | 5.0 | 13.0 | 0.00 | 0.00 | 0.00 | 31 | 1006.5 |
| 20260504211737 | 78 | 212 | 6.0 | 19.0 | 0.00 | 0.00 | 0.00 | 31 | 1006.5 |
| 20260504211236 | 78 | 197 | 6.0 | 18.0 | 0.00 | 0.00 | 0.00 | 31 | 1006.5 |
| 20260504210735 | 78 | 211 | 5.0 | 18.0 | 0.00 | 0.00 | 0.00 | 31 | 1006.4 |
| 20260504210236 | 78 | 257 | 7.0 | 16.0 | 0.00 | 0.00 | 0.00 | 31 | 1006.4 |
| 20260504205736 | 78 | 231 | 7.0 | 16.0 | 0.00 | 0.00 | 0.00 | 31 | 1006.5 |
| 20260504205238 | 78 | 225 | 6.0 | 15.0 | 0.00 | 0.00 | 0.00 | 31 | 1006.5 |
| 20260504204234 | 78 | 189 | 6.0 | 14.0 | 0.00 | 0.00 | 0.00 | 30 | 1006.4 |
| 20260504203232 | 78 | 204 | 5.0 | 15.0 | 0.00 | 0.00 | 0.00 | 30 | 1006.6 |
| 20260504202732 | 78 | 165 | 5.0 | 18.0 | 0.00 | 0.00 | 0.00 | 31 | 1006.7 |
| 20260504201234 | 78 | 225 | 6.0 | 19.0 | 0.00 | 0.00 | 0.00 | 31 | 1006.9 |
| 20260504200727 | 78 | 186 | 6.0 | 18.0 | 0.00 | 0.00 | 0.00 | 31 | 1007.0 |
| 20260504200226 | 78 | 235 | 7.0 | 16.0 | 0.00 | 0.00 | 0.00 | 31 | 1007.0 |
| 20260504195227 | 78 | 205 | 5.0 | 17.0 | 0.00 | 0.00 | 0.00 | 30 | 1007.0 |
| 20260504194725 | 78 | 203 | 5.0 | 16.0 | 0.00 | 0.00 | 0.00 | 30 | 1007.1 |
| 20260504194226 | 78 | 201 | 5.0 | 13.0 | 0.00 | 0.00 | 0.00 | 31 | 1007.2 |
| 20260504193726 | 78 | 200 | 6.0 | 14.0 | 0.00 | 0.00 | 0.00 | 31 | 1007.3 |
| 20260504193228 | 77 | 160 | 5.0 | 14.0 | 0.00 | 0.00 | 0.00 | 31 | 1007.3 |
| 20260504192725 | 77 | 252 | 5.0 | 14.0 | 0.00 | 0.00 | 0.00 | 32 | 1007.4 |
| 20260504192226 | 77 | 195 | 5.0 | 14.0 | 0.00 | 0.00 | 0.00 | 31 | 1007.7 |
| 20260504191725 | 77 | 177 | 6.0 | 15.0 | 0.00 | 0.00 | 0.00 | 32 | 1007.8 |
| 20260504191224 | 77 | 203 | 7.0 | 15.0 | 0.00 | 0.00 | 0.00 | 32 | 1007.9 |
| 20260504190723 | 77 | 173 | 5.0 | 13.0 | 0.00 | 0.00 | 0.00 | 31 | 1008.0 |
| 20260504190224 | 77 | 173 | 4.0 | 13.0 | 0.00 | 0.00 | 0.00 | 31 | 1008.1 |
| 20260504185725 | 77 | 136 | 4.0 | 13.0 | 0.00 | 0.00 | 0.00 | 31 | 1008.2 |
| 20260504185225 | 77 | 148 | 5.0 | 13.0 | 0.00 | 0.00 | 0.00 | 31 | 1008.3 |
| 20260504184717 | 76 | 198 | 6.0 | 15.0 | 0.00 | 0.00 | 0.00 | 32 | 1008.3 |
| 20260504184219 | 76 | 212 | 6.0 | 15.0 | 0.00 | 0.00 | 0.00 | 32 | 1008.4 |
| 20260504183718 | 76 | 163 | 4.0 | 14.0 | 0.00 | 0.00 | 0.00 | 33 | 1008.4 |
| 20260504183219 | 76 | 195 | 4.0 | 12.0 | 0.00 | 0.00 | 0.00 | 33 | 1008.5 |
| 20260504182719 | 76 | 210 | 6.0 | 13.0 | 0.00 | 0.00 | 0.00 | 33 | 1008.7 |
| 20260504182218 | 76 | 205 | 6.0 | 15.0 | 0.00 | 0.00 | 0.00 | 33 | 1008.7 |
| 20260504181719 | 75 | 214 | 6.0 | 15.0 | 0.00 | 0.00 | 0.00 | 33 | 1008.7 |
| 20260504181219 | 76 | 143 | 5.0 | 12.0 | 0.00 | 0.00 | 0.00 | 33 | 1008.9 |
| 20260504180719 | 75 | 179 | 6.0 | 14.0 | 0.00 | 0.00 | 0.00 | 33 | 1008.9 |
| 20260504180218 | 75 | 242 | 5.0 | 14.0 | 0.00 | 0.00 | 0.00 | 34 | 1008.9 |
| 20260504175720 | 76 | 204 | 4.0 | 9.0 | 0.00 | 0.00 | 0.00 | 33 | 1009.0 |
| 20260504175217 | 75 | 170 | 4.0 | 12.0 | 0.00 | 0.00 | 0.00 | 34 | 1009.1 |
| 20260504174718 | 75 | 224 | 5.0 | 12.0 | 0.00 | 0.00 | 0.00 | 34 | 1009.3 |
| 20260504174219 | 75 | 226 | 4.0 | 12.0 | 0.00 | 0.00 | 0.00 | 34 | 1009.2 |
| 20260504173218 | 74 | 214 | 4.0 | 14.0 | 0.00 | 0.00 | 0.00 | 35 | 1009.4 |
| 20260504172714 | 74 | 160 | 4.0 | 14.0 | 0.00 | 0.00 | 0.00 | 35 | 1009.4 |
| 20260504172214 | 74 | 287 | 6.0 | 15.0 | 0.00 | 0.00 | 0.00 | 35 | 1009.5 |
| 20260504171708 | 73 | 225 | 7.0 | 15.0 | 0.00 | 0.00 | 0.00 | 35 | 1009.6 |
| 20260504171203 | 73 | 194 | 5.0 | 13.0 | 0.00 | 0.00 | 0.00 | 35 | 1009.7 |
| 20260504170701 | 74 | 143 | 4.0 | 11.0 | 0.00 | 0.00 | 0.00 | 34 | 1009.8 |
| 20260504170201 | 73 | 207 | 5.0 | 11.0 | 0.00 | 0.00 | 0.00 | 35 | 1009.8 |
| 20260504160152 | 72 | 197 | 4.0 | 11.0 | 0.00 | 0.00 | 0.00 | 34 | 1010.4 |
| 20260504150647 | 69 | 279 | 2.0 | 7.0 | 0.00 | 0.00 | 0.00 | 40 | 1010.9 |
| 20260504150148 | 68 | 227 | 2.0 | 6.0 | 0.00 | 0.00 | 0.00 | 42 | 1011.0 |
| 20260504141146 | 64 | 187 | 1.0 | 6.0 | 0.00 | 0.00 | 0.00 | 45 | 1011.2 |
| 20260504140644 | 64 | 278 | 1.0 | 6.0 | 0.00 | 0.00 | 0.00 | 46 | 1011.3 |
| 20260504140143 | 64 | 198 | 2.0 | 7.0 | 0.00 | 0.00 | 0.00 | 46 | 1011.4 |
| 20260504130635 | 59 | 215 | 2.0 | 7.0 | 0.00 | 0.00 | 0.00 | 54 | 1011.8 |
| 20260504130135 | 59 | 174 | 2.0 | 9.0 | 0.00 | 0.00 | 0.00 | 54 | 1011.8 |
| 20260504120128 | 56 | 184 | 4.0 | 13.0 | 0.00 | 0.00 | 0.00 | 57 | 1012.0 |
| 20260504110624 | 53 | 203 | 2.0 | 8.0 | 0.00 | 0.00 | 0.00 | 60 | 1012.2 |
| 20260504110124 | 53 | 298 | 2.0 | 6.0 | 0.00 | 0.00 | 0.00 | 61 | 1012.3 |
| 20260504100116 | 54 | 195 | 0.0 | 4.0 | 0.00 | 0.00 | 0.00 | 60 | 1012.1 |
| 20260504090110 | 55 | 198 | 1.0 | 10.0 | 0.00 | 0.00 | 0.00 | 57 | 1012.3 |
| 20260504081557 | 54 | 210 | 2.0 | 6.0 | 0.00 | 0.00 | 0.00 | 55 | 1012.6 |
| 20260504081055 | 54 | 233 | 2.0 | 6.0 | 0.00 | 0.00 | 0.00 | 55 | 1012.5 |
| 20260504080555 | 54 | 248 | 2.0 | 7.0 | 0.00 | 0.00 | 0.00 | 55 | 1012.5 |
| 20260504050504 | 54 | 236 | 0.0 | 2.0 | 0.00 | 0.00 | 0.00 | 61 | 1012.7 |
| 20260504050001 | 54 | 203 | 0.0 | 2.0 | 0.00 | 0.00 | 0.00 | 59 | 1012.8 |
| 20260504045502 | 54 | 225 | 0.0 | 2.0 | 0.00 | 0.00 | 0.00 | 59 | 1012.7 |
| 20260504044959 | 54 | 215 | 0.0 | 0.0 | 0.00 | 0.00 | 0.00 | 59 | 1012.8 |
| 20260504044500 | 54 | 214 | 0.0 | 0.0 | 0.00 | 0.00 | 0.00 | 59 | 1012.7 |
| 20260504044000 | 54 | 212 | 0.0 | 0.0 | 0.00 | 0.00 | 0.00 | 58 | 1012.8 |
| 20260504042956 | 54 | 210 | 0.0 | 3.0 | 0.00 | 0.00 | 0.00 | 57 | 1012.7 |
| 20260504042457 | 55 | 238 | 0.0 | 1.0 | 0.00 | 0.00 | 0.00 | 56 | 1012.8 |
| 20260504041454 | 55 | 201 | 1.0 | 5.0 | 0.00 | 0.00 | 0.00 | 55 | 1012.7 |
| 20260504040954 | 55 | 273 | 1.0 | 4.0 | 0.00 | 0.00 | 0.00 | 54 | 1012.7 |
| 20260504040455 | 55 | 210 | 1.0 | 6.0 | 0.00 | 0.00 | 0.00 | 54 | 1012.7 |
| 20260504035954 | 55 | 273 | 1.0 | 6.0 | 0.00 | 0.00 | 0.00 | 54 | 1012.8 |
| 20260504035447 | 55 | 229 | 1.0 | 5.0 | 0.00 | 0.00 | 0.00 | 55 | 1012.8 |
| 20260504034946 | 55 | 207 | 0.0 | 2.0 | 0.00 | 0.00 | 0.00 | 56 | 1012.7 |
| 20260504034445 | 55 | 235 | 1.0 | 7.0 | 0.00 | 0.00 | 0.00 | 56 | 1012.8 |
| 20260504032941 | 56 | 221 | 1.0 | 4.0 | 0.00 | 0.00 | 0.00 | 55 | 1012.5 |
| 20260504032438 | 56 | 207 | 1.0 | 3.0 | 0.00 | 0.00 | 0.00 | 55 | 1012.5 |
| 20260504031438 | 56 | 204 | 1.0 | 3.0 | 0.00 | 0.00 | 0.00 | 55 | 1012.5 |
| 20260504030938 | 56 | 287 | 0.0 | 4.0 | 0.00 | 0.00 | 0.00 | 53 | 1012.5 |
| 20260504030438 | 56 | 217 | 1.0 | 4.0 | 0.00 | 0.00 | 0.00 | 52 | 1012.4 |
| 20260504025937 | 56 | 208 | 1.0 | 4.0 | 0.00 | 0.00 | 0.00 | 51 | 1012.4 |
| 20260504025436 | 57 | 212 | 1.0 | 4.0 | 0.00 | 0.00 | 0.00 | 49 | 1012.3 |
| 20260504024928 | 57 | 208 | 1.0 | 6.0 | 0.00 | 0.00 | 0.00 | 48 | 1012.3 |
| 20260504024426 | 57 | 228 | 1.0 | 6.0 | 0.00 | 0.00 | 0.00 | 47 | 1012.2 |
| 20260504023926 | 57 | 201 | 2.0 | 6.0 | 0.00 | 0.00 | 0.00 | 46 | 1012.2 |
| 20260504023428 | 57 | 238 | 1.0 | 6.0 | 0.00 | 0.00 | 0.00 | 44 | 1012.2 |
| 20260504022927 | 56 | 188 | 0.0 | 3.0 | 0.00 | 0.00 | 0.00 | 43 | 1012.2 |
| 20260504022428 | 56 | 226 | 0.0 | 2.0 | 0.00 | 0.00 | 0.00 | 44 | 1012.2 |